Date String (YYYY-MM-DD hh:mm:ss) UTC,Instrument flags,absolute air pressure of the measurement (hPa),sample flow rate (lpm),inlet stack bypass flow (lpm),air temperature of the measurement (°C),ambient temperature measured by the external sensor (°C),aerosol sample conditioner tube jacket temperature (°C),OPC LED temperature (°C),internal box temperature (°C),relative humidity of the measurement (%),span deviation,mass concentration of particles derived from Lorenz-Mie calculation of OPC scattering (μg/m³),mass concentration of particles derived from Lorenz-Mie calculation of OPC scattering (μg/m³),mass concentration of particles derived from Lorenz-Mie calculation of OPC scattering (μg/m³)
DateTimeUTC,F1_M11,P_M11,Q1_M11,Q2_M11,T1_M11,T2_M11,T3_M11,T4_M11,T5_M11,U1_M11,ZSPAN_M11,X2_M11,X0_M11,X1_M11
2024-05-17 04:00:00,SystemResetWarning,0823.9,5.00,000.00,024.1,022.1,000.0,032.7,025.5,020.8,0000.0,0003.52,0009.27,0003.01
2024-05-17 04:01:00,SystemResetWarning,0823.9,5.00,000.00,024.2,022.5,000.0,032.6,025.7,020.8,0000.0,0003.51,0009.93,0003.01
2024-05-17 04:02:00,SystemResetWarning,0824.0,5.00,000.00,024.2,022.8,000.0,032.6,025.9,020.7,0000.0,0003.54,0009.44,0003.01
2024-05-17 04:03:00,SystemResetWarning,0823.9,5.00,000.00,024.3,023.1,000.0,032.5,026.0,020.3,0000.0,0003.53,0009.38,0003.00
2024-05-17 04:04:00,SystemResetWarning,0823.9,5.00,000.00,024.3,023.3,000.0,032.5,026.1,020.2,0000.0,0003.48,0008.33,0002.98
2024-05-17 04:05:00,SystemResetWarning,0824.0,5.00,000.00,024.4,023.5,000.0,032.5,026.2,020.4,0000.0,0003.46,0008.16,0002.98
2024-05-17 04:06:00,SystemResetWarning,0824.0,5.00,000.00,024.4,023.7,000.0,032.5,026.3,021.0,0000.0,0003.45,0008.14,0002.98
2024-05-17 04:07:00,SystemResetWarning,0824.0,5.00,000.00,024.5,023.8,000.0,032.6,026.4,021.2,0000.0,0003.46,0008.37,0003.00
2024-05-17 04:08:00,SystemResetWarning,0824.0,5.00,000.00,024.6,023.9,000.0,032.6,026.4,021.1,0000.0,0003.49,0008.67,0003.01
2024-05-17 04:09:00,SystemResetWarning,0824.0,4.99,000.00,024.6,024.0,000.0,032.6,026.5,020.7,0000.0,0003.49,0008.85,0003.03
2024-05-17 04:10:00,SystemResetWarning,0823.9,5.00,000.00,024.7,024.1,000.0,032.6,026.6,019.8,0000.0,0003.51,0008.39,0003.03
2024-05-17 04:11:00,SystemResetWarning,0824.0,5.01,000.00,024.7,024.2,000.0,032.7,026.6,019.3,0000.0,0003.50,0008.76,0003.02
2024-05-17 04:12:00,SystemResetWarning,0824.0,5.01,000.00,024.8,024.3,000.0,032.7,026.7,019.2,0000.0,0003.51,0008.26,0003.03
2024-05-17 04:13:00,SystemResetWarning,0824.0,5.00,000.00,024.8,024.4,000.0,032.7,026.7,019.0,0000.0,0003.48,0009.28,0003.02
2024-05-17 04:14:00,SystemResetWarning,0824.0,5.00,000.00,024.9,024.4,000.0,032.8,026.8,018.9,0000.0,0003.54,0010.11,0003.01
2024-05-17 04:15:00,SystemResetWarning,0824.0,5.00,000.00,025.0,024.5,000.0,032.8,026.8,018.8,0000.0,0003.58,0010.19,0003.03
2024-05-17 04:16:00,SystemResetWarning,0824.0,5.00,000.00,025.0,024.4,000.0,032.9,026.8,018.9,0000.0,0003.56,0010.20,0003.01
2024-05-17 04:17:00,SystemResetWarning,0824.0,4.99,000.00,024.8,022.5,000.0,033.0,025.8,020.5,0000.0,0003.55,0009.98,0003.00
2024-05-17 04:18:00,SystemResetWarning,0824.0,5.02,000.00,024.4,021.4,000.0,033.0,025.1,021.2,0000.0,0003.56,0009.79,0003.00
2024-05-17 04:19:00,SystemResetWarning,0823.9,5.00,000.00,024.2,021.6,000.0,032.9,025.1,021.1,0000.0,0003.55,0009.48,0002.99
2024-05-17 04:20:00,SystemResetWarning,0824.0,5.00,000.00,024.1,022.0,000.0,032.8,025.4,020.6,0000.0,0003.53,0009.25,0002.98
2024-05-17 04:21:00,SystemResetWarning,0824.0,5.00,000.00,024.2,022.4,000.0,032.7,025.6,020.4,0000.0,0003.51,0009.29,0002.97
2024-05-17 04:22:00,SystemResetWarning,0824.0,5.00,000.00,024.2,022.7,000.0,032.6,025.8,020.4,0000.0,0003.52,0008.95,0002.96
2024-05-17 04:23:00,SystemResetWarning,0823.9,5.00,000.00,024.3,023.0,000.0,032.6,026.0,020.4,0000.0,0003.55,0009.30,0002.96
2024-05-17 04:24:00,SystemResetWarning,0824.0,5.00,000.00,024.3,023.2,000.0,032.6,026.1,020.0,0000.0,0003.55,0008.20,0002.95
2024-05-17 04:25:00,SystemResetWarning,0824.0,5.00,000.00,024.4,023.4,000.0,032.6,026.2,020.2,0000.0,0003.48,0007.06,0002.95
2024-05-17 04:26:00,SystemResetWarning,0824.0,5.01,000.00,024.4,023.6,000.0,032.6,026.3,020.0,0000.0,0003.45,0007.12,0002.92
2024-05-17 04:27:00,SystemResetWarning,0824.0,4.99,000.00,024.5,023.7,000.0,032.6,026.3,019.9,0000.0,0003.47,0007.30,0002.92
2024-05-17 04:28:00,SystemResetWarning,0823.9,4.99,000.00,024.5,023.9,000.0,032.6,026.4,019.4,0000.0,0003.45,0007.19,0002.89
2024-05-17 04:29:00,SystemResetWarning,0824.0,5.01,000.00,024.6,024.0,000.0,032.6,026.5,019.2,0000.0,0003.44,0007.26,0002.88
2024-05-17 04:30:00,SystemResetWarning,0824.0,5.01,000.00,024.6,024.1,000.0,032.6,026.5,019.2,0000.0,0003.46,0007.33,0002.87
2024-05-17 04:31:00,SystemResetWarning,0823.9,5.00,000.00,024.7,024.2,000.0,032.7,026.6,020.1,0000.0,0003.46,0007.46,0002.87
2024-05-17 04:32:00,SystemResetWarning,0824.0,5.00,000.00,024.8,024.2,000.0,032.7,026.6,020.0,0000.0,0003.47,0007.89,0002.85
2024-05-17 04:33:00,SystemResetWarning,0824.0,5.00,000.00,024.8,024.3,000.0,032.7,026.7,019.7,0000.0,0003.48,0007.91,0002.85
2024-05-17 04:34:00,SystemResetWarning,0824.0,5.00,000.00,024.9,024.4,000.0,032.8,026.7,019.6,0000.0,0003.45,0007.42,0002.84
2024-05-17 04:35:00,SystemResetWarning,0824.0,5.00,000.00,024.9,024.4,000.0,032.8,026.8,019.9,0000.0,0003.46,0007.84,0002.85
2024-05-17 04:36:00,SystemResetWarning,0824.0,5.00,000.00,025.0,024.5,000.0,032.8,026.8,019.6,0000.0,0003.47,0008.81,0002.84
2024-05-17 04:37:00,SystemResetWarning,0824.0,5.00,000.00,025.0,024.5,000.0,032.9,026.9,019.8,0000.0,0003.46,0008.95,0002.84
2024-05-17 04:38:00,SystemResetWarning,0824.0,5.00,000.00,025.1,024.6,000.0,032.9,026.9,019.5,0000.0,0003.41,0008.79,0002.82
2024-05-17 04:39:00,SystemResetWarning,0824.0,5.00,000.00,025.1,024.6,000.0,033.0,027.0,019.1,0000.0,0003.42,0008.81,0002.82
2024-05-17 04:40:00,SystemResetWarning,0824.0,5.00,000.00,025.1,024.7,000.0,033.0,027.0,019.6,0000.0,0003.41,0008.73,0002.81
2024-05-17 04:41:00,SystemResetWarning,0824.0,5.00,000.00,025.2,024.6,000.0,033.0,027.0,019.7,0000.0,0003.40,0008.71,0002.80
2024-05-17 04:42:00,SystemResetWarning,0824.0,4.97,000.00,025.0,022.8,000.0,033.1,026.0,020.1,0000.0,0003.39,0008.64,0002.78
2024-05-17 04:43:00,SystemResetWarning,0823.9,5.02,000.00,024.6,021.5,000.0,033.2,025.3,020.0,0000.0,0003.34,0008.10,0002.76
2024-05-17 04:44:00,SystemResetWarning,0823.9,5.00,000.00,024.4,021.7,000.0,033.1,025.2,020.0,0000.0,0003.34,0008.10,0002.75
2024-05-17 04:45:00,SystemResetWarning,0823.9,5.00,000.00,024.3,022.0,000.0,032.9,025.4,019.7,0000.0,0003.34,0008.02,0002.72
2024-05-17 04:46:00,SystemResetWarning,0823.9,5.00,000.00,024.3,022.4,000.0,032.8,025.7,019.7,0000.0,0003.30,0008.01,0002.68
2024-05-17 04:47:00,SystemResetWarning,0823.9,4.99,000.00,024.4,022.7,000.0,032.8,025.9,019.8,0000.0,0003.29,0006.96,0002.67
2024-05-17 04:48:00,SystemResetWarning,0824.0,5.00,000.00,024.4,023.0,000.0,032.7,026.1,019.9,0000.0,0003.28,0006.49,0002.67
2024-05-17 04:49:00,SystemResetWarning,0824.0,5.00,000.00,024.4,023.2,000.0,032.7,026.2,020.0,0000.0,0003.31,0006.96,0002.67
2024-05-17 04:50:00,SystemResetWarning,0824.0,5.00,000.00,024.5,023.5,000.0,032.7,026.3,020.3,0000.0,0003.32,0007.13,0002.68
2024-05-17 04:51:00,SystemResetWarning,0824.0,5.00,000.00,024.5,023.6,000.0,032.7,026.3,020.3,0000.0,0003.31,0007.42,0002.68
2024-05-17 04:52:00,SystemResetWarning,0823.9,5.00,000.00,024.6,023.8,000.0,032.7,026.4,020.3,0000.0,0003.30,0007.70,0002.68
2024-05-17 04:53:00,SystemResetWarning,0824.0,4.99,000.00,024.6,023.9,000.0,032.7,026.5,019.5,0000.0,0003.28,0007.96,0002.67
2024-05-17 04:54:00,SystemResetWarning,0824.0,4.99,000.00,024.7,024.0,000.0,032.7,026.5,019.5,0000.0,0003.31,0008.05,0002.68
2024-05-17 04:55:00,SystemResetWarning,0824.0,5.01,000.00,024.7,024.1,000.0,032.8,026.6,019.1,0000.0,0003.28,0007.90,0002.68
2024-05-17 04:56:00,SystemResetWarning,0824.0,5.01,000.00,024.8,024.2,000.0,032.8,026.6,018.8,0000.0,0003.29,0007.93,0002.69
2024-05-17 04:57:00,SystemResetWarning,0824.0,4.99,000.00,024.8,024.3,000.0,032.8,026.7,018.8,0000.0,0003.28,0007.41,0002.70
2024-05-17 04:58:00,SystemResetWarning,0824.0,4.99,000.00,024.9,024.3,000.0,032.8,026.7,018.5,0000.0,0003.27,0007.27,0002.69
2024-05-17 04:59:00,SystemResetWarning,0824.0,4.99,000.00,024.9,024.4,000.0,032.9,026.8,018.4,0000.0,0003.27,0007.39,0002.67
